This is the latest recevied weather packets stored in our database for station/object KB1FPD. If no packets are shown the sender has not sent any weather packets the latest 10 day(s).
| Time | Temp. | Humidity | Pressure | Rain* | Wind** | Luminosity | Snow |
|---|---|---|---|---|---|---|---|
| 1777589180 | 10° C | 70% | 1012.1 hPa | 0 mm | - | - | - |
| 1777588878 | 10.56° C | 70% | 1012 hPa | 0 mm | - | - | - |
| 1777588579 | 10.56° C | 70% | 1011.9 hPa | 0 mm | - | - | - |
| 1777588280 | 10.56° C | 69% | 1011.9 hPa | 0 mm | - | - | - |
| 1777587976 | 11.11° C | 68% | 1011.7 hPa | 0 mm | - | - | - |
| 1777587672 | 11.11° C | 69% | 1011.6 hPa | 0 mm | - | - | - |
| 1777587378 | 11.11° C | 68% | 1011.5 hPa | 0 mm | - | - | - |
| 1777587079 | 11.67° C | 67% | 1011.4 hPa | 0 mm | - | - | - |
| 1777586777 | 12.22° C | 64% | 1011.3 hPa | 0 mm | - | - | - |
| 1777586477 | 12.78° C | 63% | 1011.2 hPa | 0 mm | - | - | - |
| 1777586181 | 13.33° C | 63% | 1011 hPa | 0 mm | - | - | - |
| 1777585873 | 13.89° C | 62% | 1010.9 hPa | 0 mm | - | - | - |
| 1777585576 | 14.44° C | 64% | 1010.7 hPa | 0 mm | - | - | - |
| 1777585272 | 13.89° C | 65% | 1010.6 hPa | 0 mm | - | - | - |
| 1777584972 | 13.33° C | 66% | 1010.4 hPa | 0 mm | - | - | - |
| 1777584669 | 13.33° C | 67% | 1010.4 hPa | 0 mm | - | - | - |
| 1777584364 | 13.33° C | 64% | 1010.5 hPa | 0 mm | - | - | - |
| 1777584067 | 13.33° C | 64% | 1010.4 hPa | 0 mm | - | - | - |
| 1777583772 | 13.33° C | 64% | 1010.3 hPa | 0 mm | - | - | - |
| 1777583468 | 13.33° C | 66% | 1010 hPa | 0 mm | - | - | - |
| 1777583172 | 13.33° C | 65% | 1009.9 hPa | 0 mm | - | - | - |
| 1777582867 | 13.33° C | 68% | 1009.9 hPa | 0 mm | - | - | - |
| 1777582574 | 13.33° C | 66% | 1009.9 hPa | 0 mm | - | - | - |
| 1777582269 | 13.33° C | 65% | 1009.9 hPa | 0 mm | - | - | - |
| 1777581976 | 13.33° C | 67% | 1009.9 hPa | 0 mm | - | - | - |
* Rain latest hour (hover to see other rain measurements)
** Current wind speed in m/s (hover to see current wind gust speed)